This is the latest recevied weather packets stored in our database for station/object N5ATR. If no packets are shown the sender has not sent any weather packets the latest 1 day(s).
| Time | Temp. | Humidity | Pressure | Rain* | Wind** | Luminosity | Snow |
|---|---|---|---|---|---|---|---|
| 1778046820 | 5.56° C | 85% | 1012.7 hPa | 0 mm | 1.34 m/s, 299° | 0 W/m² | - |
| 1778046517 | 5.56° C | 85% | 1012.7 hPa | 0 mm | 1.79 m/s, 293° | 0 W/m² | - |
| 1778046214 | 5.56° C | 85% | 1012.7 hPa | 0 mm | 1.34 m/s, 305° | 0 W/m² | - |
| 1778045910 | 6.11° C | 84% | 1013 hPa | 0 mm | 2.24 m/s, 302° | 0 W/m² | - |
| 1778045609 | 5.56° C | 83% | 1013.2 hPa | 0 mm | 3.13 m/s, 296° | 0 W/m² | - |
| 1778045307 | 5.56° C | 84% | 1012.7 hPa | 0 mm | 2.68 m/s, 314° | 0 W/m² | - |
| 1778045005 | 5.56° C | 85% | 1012.9 hPa | 0 mm | 1.79 m/s, 279° | 0 W/m² | - |
| 1778044703 | 5.56° C | 85% | 1012.9 hPa | 0 mm | 3.58 m/s, 291° | 0 W/m² | - |
| 1778044398 | 5.56° C | 85% | 1012.9 hPa | 0 mm | 1.79 m/s, 297° | 0 W/m² | - |
| 1778044096 | 5.56° C | 85% | 1012.7 hPa | 0 mm | 2.24 m/s, 316° | 0 W/m² | - |
| 1778043794 | 5.56° C | 85% | 1012.9 hPa | 0 mm | 1.79 m/s, 286° | 0 W/m² | - |
| 1778043490 | 5.56° C | 85% | 1012.7 hPa | 0 mm | 1.79 m/s, 312° | 0 W/m² | - |
| 1778043187 | 5.56° C | 86% | 1012.7 hPa | 0 mm | 1.79 m/s, 300° | 0 W/m² | - |
| 1778042884 | 5.56° C | 88% | 1012.7 hPa | 0 mm | 3.13 m/s, 301° | 0 W/m² | - |
| 1778042581 | 5.56° C | 89% | 1012.4 hPa | 0 mm | 2.24 m/s, 334° | 0 W/m² | - |
| 1778042278 | 5° C | 90% | 1012.7 hPa | 0 mm | 2.24 m/s, 334° | 0 W/m² | - |
| 1778041976 | 5.56° C | 90% | 1012.4 hPa | 0 mm | 1.34 m/s, 296° | 0 W/m² | - |
| 1778041675 | 5.56° C | 91% | 1012.7 hPa | 0 mm | 1.34 m/s, 339° | 0 W/m² | - |
| 1778041373 | 5.56° C | 91% | 1012.7 hPa | 0 mm | 0.45 m/s, 330° | 0 W/m² | - |
| 1778041071 | 5.56° C | 91% | 1012.8 hPa | 1.27 mm | 1.34 m/s, 354° | 0 W/m² | - |
| 1778040768 | 5.56° C | 91% | 1012.8 hPa | 1.27 mm | 1.34 m/s, 307° | 0 W/m² | - |
| 1778040465 | 5.56° C | 91% | 1012.3 hPa | 0 mm | 0.89 m/s, 343° | 0 W/m² | - |
| 1778040162 | 5.56° C | 90% | 1012.7 hPa | 0 mm | 2.24 m/s, 344° | 0 W/m² | - |
| 1778039859 | 5.56° C | 90% | 1012.3 hPa | 1.78 mm | 1.79 m/s, 340° | 0 W/m² | - |
| 1778039556 | 5° C | 89% | 1012.3 hPa | 1.78 mm | 1.79 m/s, 322° | 0 W/m² | - |
* Rain latest hour (hover to see other rain measurements)
** Current wind speed in m/s (hover to see current wind gust speed)